Погода Николаевск-
на-Амуре

Погода Николаевск-
на-Амуре : погода сейчас, прогноз погоды и архив. Всё, что Вы хотите узнать о погоде Николаевск-
на-Амуре!

Хотите узнать прогноз погоды Николаевск-
на-Амуре? Тогда Вам сюда: Погода Николаевск-
на-Амуре

Поиск расширенной информации на нашем сайте:

Другие новости

Новости СМИ2

Главная страница сайта

Новости сайта

03.07.2017

Напоминаем, что на нашем специализированном сайте Метеоцентр.Азия вы можете получить высокодетализированные автоматические прогнозы погоды по пунктам России, СНГ и мира в авиационном формате (включающие направление и скорость ветра, видимость, явления погоды, количество и форму облачности, нижнюю и верхнюю границу облачности).

Рекомендуем: Скорый ремонт компьютеров люблино выезжает в любой район.

Погода Николаевск-
на-Амуре - сегодня

Время (UTC), дата Ветер
(°,м/с) 
Видим.   Явления Облачность Т
(°С)
Тd
(°С)
f(%) Тe
(°С)
Pmin
(гПа)
dP
(гПа)
Po
(мм)
O2
(г/м3)
Тmin Tmax R s Состояние
почвы
00 19.09.17 050 (СВ) 7-13{13}  20000 м  ливневой дождь  10/10 600 м кучево-дожд. 
[Cb cap]
+12.5 +9.8 84 +12  996.7  -2.3  743  285           
03 19.09.17 050 (СВ) 4{13}  4000 м  ливневой дождь  10/10 600 м кучево-дожд. 
[Cb cap]
+12.4 +10.4 88 +14  995  -1.8  742  284           
06 19.09.17 020 (С) 4000 м  ливневой дождь  10/10 600 м кучево-дожд. 
[Cb cap]
+11.9 +10.1 89 +15  994.5  -0.5  742  285           
09 19.09.17 360 (С) 4000 м  ливневой дождь  10/10 600 м кучево-дожд. 
[Cb cap]
+11.8 +9.7 87 +12  994.6  0.1  742  285    +12.5  12     
12 19.09.17 360 (С) 5-14{14}  4000 м  ливневой дождь  10/10 600 м кучево-дожд. 
[Cb cap]
+11.4 +9.6 89 +11  994.7  0.1  742  285           
15 19.09.17 330 (СЗ) 4{14}  4000 м  ливневой дождь  10/10 600 м кучево-дожд. 
[Cb cap]
+11.1 +9.8 92 +11  995.3  0.6  742  286           
18 19.09.17 310 (СЗ) 4000 м  слаб. ливневой дождь  10/10 600 м кучево-дожд. 
[Cb cap]
+11 +9.7 92 +11  995.8  0.5  743  286           
21 19.09.17 310 (СЗ) 4000 м  слаб. ливневой дождь  10/10 600 м кучево-дожд. 
[Cb cap]
+10.9 +9.8 93 +12  996.1  0.3  743  286  +10.7      мокрая 
00 20.09.17 300 (СЗ) 3{11}  20000 м  слаб. ливневой дождь  10/10 300 м кучево-дожд. 
[Cb cap]
+12.9 +10.8 87 +15  996.3  0.3  743  284           
03 20.09.17 290 (З) 2000 м  ливневой дождь  10/10 300 м кучево-дожд. 
[Cb cap]
+12.7 +11.5 92 +15  996.2  0.1  743  284           
06 20.09.17 290 (З) 4000 м  слаб. ливневой дождь  10/10 300 м кучево-дожд. 
[Cb cap]
+12.9 +11.4 91 +15  996.4  0.2  743  284           
09 20.09.17 290 (З) н/о    н/о 
+12.4 +10.4 88 +14  997.9  1.4  744  285    +13.3       
12 20.09.17 260 (З) 10 км  слаб. ливневой дождь  10/10 300 м кучево-дожд. 
[Cb cap]
+11.6 +10.7 94 +13  998.5  0.6  745  286           
15 20.09.17 270 (З) 20000 м  в посл. час ливневой дождь  10/10 300 м кучево-дожд. 
[Cb cap]
+11.1 +9.4 89 +11  999.2  0.7  745  287           
18 20.09.17 270 (З) 20000 м  {ливн. осадки}  10/10 300 м кучево-дожд. 
[Cb cap]
+11.7 +9.6 87 +12  999.7  0.5  746  286           
21 20.09.17 280 (З) 5{12}  20000 м    10/10 300 м кучево-дожд. 
[Cb cap]
+11.2 +8.7 85 +10  1001.3  1.6  747  288  +11      мокрая 
00 21.09.17 280 (З) 5{11}  20000 м    10/10 600 м кучево-дожд. 
[Cb cap]
+12 +8.1 77 +11  1002.8  1.4  748  287           
03 21.09.17 270 (З) 6-11{13}  20000 м    4/4 600 м 
[Sc]
+15.3 +5.3 51 +15  1003.2  0.4  748  285           
06 21.09.17 300 (СЗ) 6{15}  20000 м    4/4 600 м 
[Sc]
+13.3 +3.5 51 +12  1004.6  1.4  749  287           
09 21.09.17 290 (З) 4{12}  20000 м    1/1 600 м 
[Sc]
+9.7 +2.2 59 +9  1007.1  2.4  751  292    +15.9       
12 21.09.17 330 (СЗ) 20000 м    ясно 
+4.4 +1.2 80 +5  1009.2  1.9  753  298           
15 21.09.17 340 (С) 20000 м    ясно 
+1 -0.6 89 +2  1010.3  1.1  753  303           
18 21.09.17 010 (С) 20000 м    ясно 
+0.5 -0.5 93 1011.6  1.2  754  303           
21 21.09.17 360 (С) 20000 м    ясно 
-0.6 -1.6 93 -1  1013.3  1.7  756  305  -1.2        замёрзшая 
00 22.09.17 250 (З) 20000 м    ясно 
+10.6 +4.1 64 +10  1013.9  0.8  756  293           
Время (UTC), дата Ветер
(°,м/с) 
Видим.   Явления Облачность Т
(°С)
Тd
(°С)
f(%) Тe
(°С)
Pmin
(гПа)
dP
(гПа)
Po
(мм)
O2
(г/м3)
Тmin Tmax R s Состояние
почвы

Для получения пояснительной информации подведите курсор к названию столбца.

ПОГОДА Николаевск-
на-Амуре - архив

Всё, что Вы хотите узнать о погоде Николаевск-
на-Амуре - удобно и подробно!

Выберите нужную дату (начиная с 1 января 2015* года) и нажмите кнопку "Найти".
Будут отображены архивные сводки погоды по пункту Николаевск-
на-Амуре, начиная с указанной даты.


Отображать данные в формате CSV (для использования в таблицах Excel)


Внимание! Наш архив погоды предназначен исключительно для личного некоммерческого использования в познавательных целях. Если Вам необходимы официальные справки о состоянии погоды (для производственных, юридических, коммерческих и т.п. целей), обращайтесь в органы Росгидромета.

*Примечание: данная дата относится к архиву по метеостанциям СССР (Россия, СНГ, Балтия).
Архив по метеостанциям Зарубежной Европы и Азии (кроме Китая) хранится 10 дней, по другим регионам земного шара (Китай, Африка, Америка, Австралия, Океания) - 1 день.

Николаевск-
на-Амуре - район местоположения метеостанции


Название, широта, долгота, высота метеостанции:
Николаевск-на-Амуре 53.2°ш. 140.7°д. 68 м над ур. моря [Российская Федерация]

Дополнительная информация

В oтличие oт бoльшинства пoгoдных сайтoв мы публикуем пoдрoбную метеoинфoрмацию в детальнoм прoфессиoнальнoм фoрмате.

Характеристики температуры и влажнoсти вoздуха измеряются на высoте 2 м в тени вдали oт зданий и деревьев.
Скoрoсть ветра измеряется на высoте 10 м (на урoвне рoста челoвека скoрoсть ветра ниже в 1.5-2 раза). Если метеoстанция нахoдится в гoрoде или в лесу, тo скoрoсть ветра занижена на 2-4 м/с пo сравнению с oткрытым местoм. Скoрoсть ветра над акватoриями крупных рек и oзёр, а также на вершинах хoлмoв на 2-5 м/с выше, чем в oбычных услoвиях.
Атмoсфернoе давление в разных тoчках местнoсти мoжет значительнo oтличаться oт давления на метеoстанции, в зависимoсти oт услoвий рельефа (при пoдъёме на 10 м давление пoнижается примернo на 1 мм рт.ст.).